FW4606 Weather Reports


time (UTC)temp
F
wind
direction
speed
knots
gust
knots
rain 1hr
in
rain 24hr
in
rain mn
in
humidity
%
barometer
mb
20260902144156 73 136 0.0 0.9 0.00 0.00 0.00 80 1012.8
20260902143650 72 110 0.0 0.9 0.00 0.00 0.00 81 1012.9
20260902143415 71 156 0.0 0.9 0.00 0.00 0.00 83 1013.0
20260902142640 71 156 0.0 0.9 0.00 0.00 0.00 83 1013.2
20260902142132 70 120 0.0 0.9 0.00 0.00 0.00 84 1013.4
20260902141626 70 186 0.0 0.9 0.00 0.00 0.00 85 1013.4
20260902141120 70 352 0.0 0.9 0.00 0.00 0.00 85 1013.4
20260902140847 69 352 0.0 0.9 0.00 0.00 0.00 85 1013.5
20260902140108 69 352 0.0 0.9 0.00 0.00 0.00 85 1013.4
20260902135602 69 158 0.0 0.9 0.00 0.00 0.00 86 1013.5
20260902135056 69 145 0.0 0.9 0.00 0.00 0.00 86 1013.4
20260902134549 69 169 0.0 0.9 0.00 0.00 0.00 86 1013.4
20260902134044 69 169 0.0 1.7 0.00 0.00 0.00 86 1013.2
20260902133538 68 246 0.0 1.7 0.00 0.00 0.00 86 1013.2
20260902133032 68 242 0.0 1.7 0.00 0.00 0.00 86 1013.5
20260902132526 68 197 0.0 1.7 0.00 0.00 0.00 87 1013.4
20260902132251 68 169 0.0 1.7 0.00 0.00 0.00 87 1013.4
20260902131514 68 160 0.0 0.9 0.00 0.00 0.00 87 1013.4
20260902131009 68 120 0.0 0.9 0.00 0.00 0.00 88 1013.5
20260902131004 68 120 0.0 0.9 0.00 0.00 0.00 88 1013.5
20260902125956 67 120 0.0 0.9 0.00 0.00 0.00 89 1013.4
20260902125450 67 164 0.0 0.0 0.00 0.00 0.00 90 1013.5
20260902125215 67 163 0.0 0.0 0.00 0.00 0.00 90 1013.5
20260902124438 67 164 0.0 0.0 0.00 0.00 0.00 90 1013.5
20260902124202 67 164 0.0 0.0 0.00 0.00 0.00 90 1013.6
20260902123425 67 163 0.0 0.0 0.00 0.00 0.00 90 1013.8
20260902122920 67 163 0.0 0.0 0.00 0.00 0.00 90 1013.6
20260902122413 67 163 0.0 0.0 0.00 0.00 0.00 90 1013.4
20260902121908 67 164 0.0 0.0 0.00 0.00 0.00 90 1013.5
20260902121402 66 164 0.0 0.0 0.00 0.00 0.00 90 1013.4
20260902120856 67 163 0.0 0.0 0.00 0.00 0.00 90 1013.5
20260902120350 67 163 0.0 0.0 0.00 0.00 0.00 90 1013.5
20260902115844 66 163 0.0 0.0 0.00 0.00 0.00 90 1013.6
20260902115338 66 163 0.0 0.0 0.00 0.00 0.00 90 1013.9
20260902114832 66 163 0.0 0.0 0.00 0.00 0.00 90 1013.8
20260902114326 66 163 0.0 0.0 0.00 0.00 0.00 90 1014.0
20260902113820 66 164 0.0 0.0 0.00 0.00 0.00 90 1013.9
20260902113313 66 163 0.0 0.0 0.00 0.00 0.00 90 1013.7
20260902112808 66 164 0.0 0.0 0.00 0.00 0.00 90 1013.7
20260902112305 67 163 0.0 0.0 0.00 0.00 0.00 90 1013.6
20260902111756 67 163 0.0 0.0 0.00 0.00 0.00 90 1013.5
20260902111249 67 163 0.0 0.0 0.00 0.00 0.00 90 1013.7
20260902111015 67 163 0.0 0.0 0.00 0.00 0.00 90 1013.6
20260902110238 67 163 0.0 0.0 0.00 0.00 0.00 90 1013.5
20260902110006 66 163 0.0 0.0 0.00 0.00 0.00 90 1013.5
20260902105226 66 164 0.0 0.0 0.00 0.00 0.00 90 1013.6
20260902104719 66 163 0.0 0.0 0.00 0.00 0.00 90 1013.6
20260902104214 66 163 0.0 0.0 0.00 0.00 0.00 90 1013.6
20260902103708 66 164 0.0 0.9 0.00 0.00 0.00 91 1013.8
20260902103202 66 164 0.0 0.9 0.00 0.00 0.00 91 1013.7
20260902102655 66 163 0.0 0.0 0.00 0.00 0.00 91 1013.6
20260902102150 66 163 0.0 0.0 0.00 0.00 0.00 91 1013.7
20260902101644 66 163 0.0 0.9 0.00 0.00 0.00 90 1013.6
20260902101137 66 163 0.0 0.9 0.00 0.00 0.00 90 1013.5
20260902100632 67 312 0.0 0.0 0.00 0.00 0.00 90 1012.9
20260902100358 67 314 0.0 0.0 0.00 0.00 0.00 90 1012.8
20260902095622 67 314 0.0 0.0 0.00 0.00 0.00 90 1012.7
20260902095344 67 313 0.0 0.0 0.00 0.00 0.00 89 1012.6
20260902094607 67 314 0.0 0.0 0.00 0.00 0.00 89 1012.6
20260902094102 67 314 0.0 0.0 0.00 0.00 0.00 89 1012.3
20260902093556 68 314 0.0 0.0 0.00 0.00 0.00 88 1012.2
20260902092544 68 314 0.0 0.0 0.00 0.00 0.00 88 1011.9
20260902092037 68 314 0.0 0.9 0.00 0.00 0.00 88 1012.2
20260902091532 68 314 0.0 0.9 0.00 0.00 0.00 88 1012.2
20260902091026 67 314 0.0 0.9 0.00 0.00 0.00 89 1012.3
20260902090750 67 310 0.0 0.9 0.00 0.00 0.00 89 1012.4
20260902090014 67 310 0.0 0.9 0.00 0.00 0.00 89 1012.2
20260902085508 67 311 0.0 0.9 0.00 0.00 0.00 90 1012.3
20260902085234 67 239 0.0 0.0 0.00 0.00 0.00 90 1012.7
20260902084957 67 239 0.0 0.0 0.00 0.00 0.00 90 1012.9
20260902083950 67 239 0.0 0.0 0.00 0.00 0.00 90 1012.8
20260902083443 67 239 0.0 0.0 0.00 0.00 0.00 90 1012.8
20260902082937 67 239 0.0 0.0 0.00 0.00 0.00 90 1012.8
20260902082432 67 239 0.0 0.0 0.00 0.00 0.00 89 1012.8
20260902082156 67 239 0.0 0.0 0.00 0.00 0.00 89 1013.0
20260902081420 67 239 0.0 0.0 0.00 0.00 0.00 89 1013.2
20260902080914 67 239 0.0 0.0 0.00 0.00 0.00 89 1013.2
20260902080411 67 239 0.0 0.0 0.00 0.00 0.00 89 1013.1
20260902080405 67 239 0.0 0.0 0.00 0.00 0.00 89 1013.0
20260902075627 67 239 0.0 0.9 0.00 0.00 0.00 89 1012.8
20260902075120 67 239 0.0 0.9 0.00 0.00 0.00 89 1013.2
20260902074344 67 152 0.0 0.0 0.00 0.00 0.00 90 1013.2
20260902073838 67 152 0.0 0.0 0.00 0.00 0.00 89 1013.2
20260902073332 67 162 0.0 0.0 0.00 0.00 0.00 89 1013.1
20260902072826 67 162 0.0 0.0 0.00 0.00 0.00 89 1013.1
20260902072320 68 163 0.0 0.0 0.00 0.00 0.00 88 1013.4
20260902071813 68 144 0.0 0.0 0.00 0.00 0.00 88 1013.4
20260902071538 68 144 0.0 0.9 0.00 0.00 0.00 88 1013.5
20260902070802 68 144 0.0 0.9 0.00 0.00 0.00 88 1013.6
20260902070527 68 143 0.0 0.0 0.00 0.00 0.00 88 1013.7
20260902070021 68 144 0.0 0.0 0.00 0.00 0.00 87 1013.8
20260902065245 67 143 0.0 0.0 0.00 0.00 0.00 87 1013.9
20260902064738 67 144 0.0 0.0 0.00 0.00 0.00 87 1014.0
20260902064231 67 144 0.0 0.0 0.00 0.00 0.00 87 1014.2
20260902063726 67 144 0.0 0.0 0.00 0.00 0.00 88 1014.1
20260902063219 66 144 0.0 0.0 0.00 0.00 0.00 88 1014.0
20260902062713 66 144 0.0 0.0 0.00 0.00 0.00 88 1014.0
20260902062207 66 143 0.0 0.0 0.00 0.00 0.00 87 1013.8
20260902061702 67 144 0.0 0.0 0.00 0.00 0.00 87 1013.6
20260902061156 67 144 0.0 0.0 0.00 0.00 0.00 86 1013.2
20260902060650 67 144 0.0 0.0 0.00 0.00 0.00 86 1012.9
20260902060143 67 143 0.0 0.0 0.00 0.00 0.00 85 1012.6
20260902055915 67 143 0.0 0.0 0.00 0.00 0.00 86 1012.7
20260902055141 67 143 0.0 0.0 0.00 0.00 0.00 86 1012.9
20260902054640 67 144 0.0 0.0 0.00 0.00 0.00 86 1013.2
20260902054140 67 144 0.0 0.0 0.00 0.00 0.00 86 1013.5
20260902053910 67 144 0.0 0.0 0.00 0.00 0.00 87 1013.5
20260902053138 67 143 0.0 0.0 0.00 0.00 0.00 86 1013.7
20260902052636 67 143 0.0 0.0 0.00 0.00 0.00 87 1013.7
20260902052132 67 144 0.0 0.0 0.00 0.00 0.00 87 1013.9
20260902051635 67 144 0.0 0.0 0.00 0.00 0.00 86 1014.0
20260902051134 67 144 0.0 0.0 0.00 0.00 0.00 86 1014.0
20260902050631 67 144 0.0 0.0 0.00 0.00 0.00 86 1013.9
20260902050130 67 144 0.0 0.0 0.00 0.00 0.00 86 1013.8
20260902045627 67 143 0.0 0.0 0.00 0.00 0.00 85 1013.7
20260902045125 67 143 0.0 0.0 0.00 0.00 0.00 85 1013.5
20260902044624 67 144 0.0 0.0 0.00 0.00 0.00 86 1013.2
20260902044125 67 144 0.0 0.0 0.00 0.00 0.00 87 1013.4
20260902043623 67 143 0.0 0.0 0.00 0.00 0.00 87 1013.5
20260902043119 67 143 0.0 0.0 0.00 0.00 0.00 87 1013.4
20260902042615 67 143 0.0 0.0 0.00 0.00 0.00 86 1013.2
20260902042121 67 143 0.0 0.0 0.00 0.00 0.00 85 1012.8
20260902042117 67 144 0.0 0.0 0.00 0.00 0.00 86 1013.0
20260902041115 68 144 0.0 0.0 0.00 0.00 0.00 84 1012.8
20260902040614 68 143 0.0 0.0 0.00 0.00 0.00 84 1013.1
20260902040113 68 143 0.0 0.0 0.00 0.00 0.00 84 1013.2
20260902035614 68 144 0.0 0.0 0.00 0.00 0.00 85 1013.2
20260902035114 68 143 0.0 0.0 0.00 0.00 0.00 85 1013.4
20260902034615 68 144 0.0 0.0 0.00 0.00 0.00 84 1013.2
20260902034110 68 144 0.0 0.0 0.00 0.00 0.00 83 1013.4
20260902033609 69 144 0.0 0.0 0.00 0.00 0.00 83 1013.5
20260902033109 69 143 0.0 0.0 0.00 0.00 0.00 83 1013.8
20260902032611 68 143 0.0 0.0 0.00 0.00 0.00 83 1013.9
20260902032110 68 144 0.0 0.0 0.00 0.00 0.00 84 1014.0
20260902031610 68 143 0.0 0.0 0.00 0.00 0.00 82 1013.9
20260902031109 68 143 0.0 0.0 0.00 0.00 0.00 82 1013.8
20260902030609 69 144 0.0 0.0 0.00 0.00 0.00 81 1013.6
20260902030342 69 144 0.0 0.0 0.00 0.00 0.00 81 1013.7
20260902025836 69 144 0.0 0.0 0.00 0.00 0.00 79 1013.7
20260902025107 69 144 0.0 0.0 0.00 0.00 0.00 79 1013.6
20260902024606 70 144 0.0 0.0 0.00 0.00 0.00 78 1013.5
20260902024106 70 144 0.0 0.0 0.00 0.00 0.00 78 1013.2
20260902023606 70 143 0.0 0.0 0.00 0.00 0.00 77 1013.4
20260902023336 71 144 0.0 0.0 0.00 0.00 0.00 75 1013.4
20260902022605 71 144 0.0 0.0 0.00 0.00 0.00 75 1013.5
20260902022105 71 143 0.0 0.0 0.00 0.00 0.00 74 1013.5
20260902021606 71 143 0.0 0.0 0.00 0.00 0.00 74 1013.5
20260902021101 71 143 0.0 0.0 0.00 0.00 0.00 74 1013.5
20260902020833 72 144 0.0 0.0 0.00 0.00 0.00 73 1013.5
20260902015602 72 144 0.0 0.0 0.00 0.00 0.00 73 1013.2
20260902015335 73 143 0.0 0.0 0.00 0.00 0.00 71 1013.4
20260902014601 73 144 0.0 0.0 0.00 0.00 0.00 69 1013.2
20260902014102 74 144 0.0 0.0 0.00 0.00 0.00 69 1013.2
20260902013832 74 144 0.0 0.0 0.00 0.00 0.00 68 1013.2
20260902013103 74 144 0.0 0.0 0.00 0.00 0.00 67 1013.1
20260902012559 75 144 0.0 0.0 0.00 0.00 0.00 66 1013.0
20260902012329 75 144 0.0 0.0 0.00 0.00 0.00 66 1012.9
20260902011559 75 144 0.0 0.0 0.00 0.00 0.00 65 1012.9
20260902011059 76 144 0.0 0.0 0.00 0.00 0.00 67 1012.9
20260902010558 76 144 0.0 0.0 0.00 0.00 0.00 64 1012.7
20260902010101 76 144 0.0 0.0 0.00 0.00 0.00 63 1012.6
20260902005600 76 143 0.0 0.0 0.00 0.00 0.00 64 1012.7
20260902005100 76 143 0.0 0.0 0.00 0.00 0.00 66 1012.8
20260902004602 77 143 0.0 0.0 0.00 0.00 0.00 61 1013.0
20260902004056 77 143 0.0 0.0 0.00 0.00 0.00 61 1012.9
20260902003556 77 143 0.0 0.0 0.00 0.00 0.00 61 1012.9
20260902003057 77 143 0.0 0.0 0.00 0.00 0.00 61 1013.0
20260902002555 78 143 0.0 0.0 0.00 0.00 0.00 60 1012.9
20260902002054 78 144 0.0 0.0 0.00 0.00 0.00 60 1013.0
20260902001555 78 143 0.0 0.0 0.00 0.00 0.00 58 1013.0
20260902001055 79 144 0.0 0.0 0.00 0.00 0.00 56 1013.1
20260902000553 80 143 0.0 0.0 0.00 0.00 0.00 56 1013.2
20260902000055 80 143 0.0 0.0 0.00 0.00 0.00 55 1013.0
20260901235551 81 143 0.0 0.0 0.00 0.00 0.00 54 1012.9
20260901235051 82 143 0.0 0.0 0.00 0.00 0.00 52 1013.1
20260901234550 82 143 0.0 0.0 0.00 0.00 0.00 52 1013.2
20260901234047 83 143 0.0 0.9 0.00 0.00 0.00 52 1013.2
20260901233551 83 143 0.0 0.9 0.00 0.00 0.00 51 1013.2
20260901233320 84 134 0.0 1.7 0.00 0.00 0.00 48 1013.1
20260901232549 84 140 0.0 1.7 0.00 0.00 0.00 48 1013.0
20260901232046 84 149 0.0 0.9 0.00 0.00 0.00 48 1013.0
20260901231545 85 158 0.0 1.7 0.00 0.00 0.00 46 1013.0
20260901231043 85 159 0.0 2.6 0.00 0.00 0.00 47 1013.1
20260901230545 85 146 0.0 2.6 0.00 0.00 0.00 48 1013.0
20260901230043 85 125 0.9 2.6 0.00 0.00 0.00 46 1013.1
20260901225540 85 148 0.9 2.6 0.00 0.00 0.00 45 1013.2
20260901225306 85 132 0.9 1.7 0.00 0.00 0.00 45 1013.2
20260901224538 85 132 0.0 1.7 0.00 0.00 0.00 50 1013.2
20260901224029 84 157 0.0 0.9 0.00 0.00 0.00 50 1013.1
20260901223528 84 136 0.0 0.9 0.00 0.00 0.00 48 1013.1
20260901223027 84 143 0.0 1.7 0.00 0.00 0.00 47 1013.0
20260901222527 84 140 0.9 1.7 0.00 0.00 0.00 45 1013.1
20260901222026 85 154 0.0 1.7 0.00 0.00 0.00 43 1013.0
20260901221525 85 228 0.9 4.3 0.00 0.00 0.00 42 1013.0
20260901221021 85 226 0.9 4.3 0.00 0.00 0.00 41 1013.0
20260901220522 85 218 0.9 3.5 0.00 0.00 0.00 43 1013.1
20260901220020 85 238 0.9 2.6 0.00 0.00 0.00 42 1013.0
20260901215521 85 169 0.9 2.6 0.00 0.00 0.00 44 1013.0
20260901215019 86 214 0.0 1.7 0.00 0.00 0.00 42 1013.0
20260901214518 86 190 0.9 2.6 0.00 0.00 0.00 41 1012.9
20260901214248 86 149 1.7 2.6 0.00 0.00 0.00 41 1012.9
20260901213748 86 156 0.9 2.6 0.00 0.00 0.00 40 1012.8
20260901213016 87 167 0.9 2.6 0.00 0.00 0.00 40 1012.7
20260901212515 87 222 0.9 1.7 0.00 0.00 0.00 38 1012.7
20260901212019 87 170 0.9 1.7 0.00 0.00 0.00 39 1012.8
20260901211512 87 154 0.9 1.7 0.00 0.00 0.00 40 1012.7
20260901211005 87 146 0.0 1.7 0.00 0.00 0.00 38 1012.6
20260901210457 87 133 0.0 2.6 0.00 0.00 0.00 38 1012.7
20260901205957 88 214 0.9 2.6 0.00 0.00 0.00 36 1012.8
20260901205456 88 208 0.9 2.6 0.00 0.00 0.00 36 1012.8
20260901205225 89 136 0.9 2.6 0.00 0.00 0.00 35 1012.8
20260901204452 89 159 0.9 4.3 0.00 0.00 0.00 34 1013.0
20260901203950 89 134 1.7 4.3 0.00 0.00 0.00 34 1013.1
20260901203448 90 112 1.7 3.5 0.00 0.00 0.00 33 1013.1
20260901203220 90 273 0.9 3.5 0.00 0.00 0.00 33 1013.1
20260901202721 91 217 0.9 3.5 0.00 0.00 0.00 32 1013.1
20260901202619 91 148 0.9 3.5 0.00 0.00 0.00 32 1013.2
20260901201449 91 159 0.9 3.5 0.00 0.00 0.00 33 1013.2
20260901200945 91 174 0.9 4.3 0.00 0.00 0.00 35 1013.2
20260901200447 91 201 0.9 4.3 0.00 0.00 0.00 32 1013.2
20260901195946 90 120 0.9 4.3 0.00 0.00 0.00 35 1013.2
20260901195446 89 107 1.7 3.5 0.00 0.00 0.00 34 1013.4
20260901194950 89 212 0.9 2.6 0.00 0.00 0.00 37 1013.5
20260901194946 89 196 0.9 3.5 0.00 0.00 0.00 35 1013.4
20260901194219 89 201 0.9 3.5 0.00 0.00 0.00 38 1013.5
20260901193446 89 159 0.9 3.5 0.00 0.00 0.00 38 1013.6
20260901192940 89 221 0.9 3.5 0.00 0.00 0.00 38 1013.5
20260901192434 90 176 0.9 4.3 0.00 0.00 0.00 37 1013.5
20260901191928 90 257 0.9 4.3 0.00 0.00 0.00 38 1013.5
20260901191421 89 212 0.0 2.6 0.00 0.00 0.00 41 1013.5
20260901190923 88 42 0.0 0.9 0.00 0.00 0.00 41 1013.6
20260901190422 88 102 0.0 0.9 0.00 0.00 0.00 44 1013.7
20260901185924 87 45 0.0 0.9 0.00 0.00 0.00 39 1013.7
20260901185424 87 54 0.0 1.7 0.00 0.00 0.00 41 1013.8
20260901184923 87 194 0.0 1.7 0.00 0.00 0.00 42 1013.8
20260901184421 87 156 0.0 1.7 0.00 0.00 0.00 45 1013.7
20260901183918 87 162 0.0 1.7 0.00 0.00 0.00 43 1013.8
20260901183417 87 141 0.0 2.6 0.00 0.00 0.00 44 1013.9
20260901182917 86 136 0.0 2.6 0.00 0.00 0.00 40 1014.0
20260901182418 87 169 0.0 1.7 0.00 0.00 0.00 43 1014.0
20260901181916 87 175 0.9 3.5 0.00 0.00 0.00 40 1014.1
20260901181645 87 166 0.9 3.5 0.00 0.00 0.00 40 1014.2
20260901180913 88 193 0.9 3.5 0.00 0.00 0.00 40 1014.2
20260901180412 87 215 0.9 3.5 0.00 0.00 0.00 40 1014.3
20260901180144 87 113 0.9 3.5 0.00 0.00 0.00 44 1014.3
20260901175411 87 162 0.9 3.5 0.00 0.00 0.00 41 1014.3
20260901175142 87 256 0.9 3.5 0.00 0.00 0.00 45 1014.5
20260901174406 86 115 0.9 2.6 0.00 0.00 0.00 43 1014.6
20260901173859 86 131 0.0 2.6 0.00 0.00 0.00 44 1014.7
20260901173354 86 351 0.0 0.9 0.00 0.00 0.00 46 1014.6
20260901172847 85 24 0.0 1.7 0.00 0.00 0.00 50 1014.6
20260901172342 85 136 0.0 1.7 0.00 0.00 0.00 48 1014.6
20260901171836 85 146 0.9 2.6 0.00 0.00 0.00 47 1014.7
20260901171603 85 149 0.9 2.6 0.00 0.00 0.00 46 1014.7
20260901171326 85 138 0.0 0.9 0.00 0.00 0.00 50 1014.8
20260901170318 84 115 0.0 0.9 0.00 0.00 0.00 47 1014.8
20260901165808 84 115 0.0 0.9 0.00 0.00 0.00 56 1014.7
20260901165306 84 77 0.0 0.9 0.00 0.00 0.00 57 1014.7
20260901164756 83 205 0.0 0.9 0.00 0.00 0.00 53 1014.7
20260901164522 83 129 0.0 0.9 0.00 0.00 0.00 58 1014.7
20260901163744 82 96 0.0 0.9 0.00 0.00 0.00 57 1014.6
20260901163238 82 8 0.0 0.9 0.00 0.00 0.00 57 1014.7
20260901162732 81 179 0.0 0.9 0.00 0.00 0.00 59 1014.6
20260901162226 81 49 0.0 0.9 0.00 0.00 0.00 61 1014.6
20260901161720 80 44 0.0 0.9 0.00 0.00 0.00 62 1014.6
20260901161214 80 129 0.0 0.9 0.00 0.00 0.00 63 1014.8
20260901160708 80 134 0.0 0.9 0.00 0.00 0.00 63 1014.8
20260901160432 80 103 0.0 1.7 0.00 0.00 0.00 64 1014.8
20260901155656 79 130 0.0 1.7 0.00 0.00 0.00 69 1014.8
20260901155150 79 201 0.0 0.9 0.00 0.00 0.00 69 1014.9
20260901154644 79 128 0.0 1.7 0.00 0.00 0.00 69 1014.8
20260901154138 78 130 0.0 1.7 0.00 0.00 0.00 70 1014.8
20260901153634 78 113 0.0 0.9 0.00 0.00 0.00 69 1014.8
20260901153629 78 96 0.0 0.9 0.00 0.00 0.00 71 1014.9
20260901152620 78 93 0.0 0.9 0.00 0.00 0.00 70 1014.9
20260901152114 78 72 0.0 0.9 0.00 0.00 0.00 69 1014.9
20260901151607 77 145 0.0 0.9 0.00 0.00 0.00 69 1014.8
20260901151102 77 125 0.0 0.9 0.00 0.00 0.00 72 1014.9
20260901150556 76 47 0.0 0.9 0.00 0.00 0.00 72 1014.9
20260901150050 76 104 0.0 0.9 0.00 0.00 0.00 73 1015.0
20260901145814 75 133 0.0 0.9 0.00 0.00 0.00 78 1015.0
20260901145038 74 136 0.0 1.7 0.00 0.00 0.00 78 1014.9
20260901144532 74 135 0.0 1.7 0.00 0.00 0.00 77 1014.9